CW8014 Weather Reports


Display with metric or nautical units.
time (UTC)temp
F
wind
direction
speed
MPH
gust
MPH
rain 1hr
in
rain 24hr
in
rain mn
in
humidity
%
barometer
mb
20260507063404 47 5 2.0 5.0 0.00 0.00 0.00 96 1014.5
20260507062404 46 5 3.0 5.0 0.00 0.00 0.00 96 1014.4
20260507061404 45 5 2.0 5.0 0.00 0.00 0.00 96 1014.2
20260507060407 45 9 3.0 5.0 0.00 0.00 0.00 96 1014.2
20260507055404 44 336 3.0 4.0 0.00 0.00 0.00 96 1014.1
20260507054404 44 327 3.0 4.0 0.00 0.00 0.00 96 1014.0
20260507053404 43 360 2.0 4.0 0.00 0.00 0.00 96 1013.9
20260507051404 41 340 2.0 3.0 0.00 0.00 0.00 95 1013.7
20260507050404 40 339 1.0 2.0 0.00 0.00 0.00 96 1013.5
20260507044404 39 313 2.0 3.0 0.00 0.00 0.00 95 1013.4
20260507043404 38 5 1.0 2.0 0.00 0.00 0.00 95 1013.3
20260507042404 37 5 0.0 1.0 0.00 0.00 0.00 95 1013.2
20260507041404 37 5 0.0 0.0 0.00 0.00 0.00 95 1013.1
20260507040404 37 5 0.0 0.0 0.00 0.00 0.00 94 1013.0
20260507035405 37 5 0.0 0.0 0.00 0.00 0.00 94 1013.0
20260507034405 37 5 0.0 1.0 0.00 0.00 0.00 94 1012.9
20260507032405 38 5 0.0 1.0 0.00 0.00 0.00 94 1012.8
20260507031405 38 5 0.0 1.0 0.00 0.00 0.00 94 1012.7
20260507030408 38 5 0.0 1.0 0.00 0.00 0.00 94 1012.6
20260507025406 38 5 0.0 0.0 0.00 0.00 0.00 94 1012.5
20260507024405 38 5 2.0 2.0 0.00 0.00 0.00 94 1012.6
20260507023405 38 5 1.0 2.0 0.00 0.00 0.00 94 1012.5
20260507022405 38 5 1.0 1.0 0.00 0.00 0.00 94 1012.5
20260507021405 39 5 0.0 1.0 0.00 0.00 0.00 94 1012.4
20260507020405 39 5 0.0 0.0 0.00 0.00 0.00 94 1012.3
20260507014405 40 5 1.0 2.0 0.00 0.00 0.00 94 1012.2
20260507013406 40 5 2.0 2.0 0.00 0.00 0.00 93 1012.1
20260507012406 40 5 1.0 3.0 0.00 0.00 0.00 93 1012.0
20260507011406 40 5 2.0 3.0 0.00 0.00 0.00 93 1012.0
20260507004406 41 355 1.0 2.0 0.00 0.00 0.00 93 1011.9
20260507003406 41 344 2.0 4.0 0.00 0.00 0.00 93 1011.8
20260507002406 41 343 2.0 4.0 0.00 0.00 0.00 93 1011.7
20260507001406 41 345 2.0 4.0 0.00 0.00 0.00 93 1011.7
20260506235407 41 335 2.0 4.0 0.00 0.00 0.00 93 1011.7
20260506234406 41 336 3.0 4.0 0.00 0.00 0.00 93 1011.8
20260506232406 41 355 2.0 3.0 0.00 0.00 0.00 93 1011.8
20260506231409 42 348 2.0 3.0 0.00 0.00 0.00 92 1011.7
20260506225407 42 347 2.0 3.0 0.00 0.00 0.00 92 1011.7
20260506224407 42 347 1.0 2.0 0.00 0.00 0.00 92 1011.7
20260506223406 43 347 2.0 4.0 0.00 0.00 0.00 92 1011.7
20260506222407 43 331 2.0 4.0 0.00 0.00 0.00 92 1011.7
20260506220407 43 339 2.0 3.0 0.00 0.00 0.00 90 1011.6
20260506215407 44 338 2.0 4.0 0.00 0.00 0.00 90 1011.6
20260506214410 44 351 2.0 4.0 0.00 0.00 0.00 90 1011.5
20260506213410 44 340 2.0 4.0 0.00 0.00 0.00 89 1011.5
20260506212407 45 333 3.0 5.0 0.00 0.00 0.00 89 1011.4
20260506211411 45 336 3.0 5.0 0.00 0.00 0.00 88 1011.3
20260506210407 45 339 2.0 5.0 0.00 0.00 0.00 88 1011.3
20260506205407 46 333 2.0 5.0 0.00 0.00 0.00 88 1011.3
20260506204407 46 325 3.0 5.0 0.00 0.00 0.00 87 1011.3
20260506202407 47 9 3.0 6.0 0.00 0.00 0.00 85 1011.1
20260506201407 47 338 3.0 6.0 0.00 0.00 0.00 85 1011.1
20260506195408 48 5 4.0 8.0 0.00 0.00 0.00 83 1011.0
20260506194407 48 351 5.0 9.0 0.00 0.00 0.00 82 1010.9
20260506193408 49 343 5.0 9.0 0.00 0.00 0.00 82 1010.8
20260506192408 49 347 5.0 10.0 0.00 0.00 0.00 81 1010.7
20260506191408 49 355 5.0 9.0 0.00 0.00 0.00 80 1010.6
20260506185411 51 336 5.0 9.0 0.00 0.00 0.00 78 1010.3
20260506184408 52 360 7.0 10.0 0.00 0.00 0.00 77 1010.3
20260506183408 53 333 4.0 9.0 0.00 0.00 0.00 77 1010.1
20260506182408 53 24 3.0 7.0 0.00 0.00 0.00 76 1010.0
20260506181408 53 86 1.0 3.0 0.00 0.00 0.00 76 1010.0
20260506180408 53 84 1.0 3.0 0.00 0.00 0.00 74 1009.9
20260506174409 53 178 3.0 4.0 0.00 0.00 0.00 73 1009.7
20260506173408 53 127 2.0 5.0 0.00 0.00 0.00 73 1009.6
20260506172408 53 116 4.0 7.0 0.00 0.00 0.00 73 1009.6
20260506171409 53 109 2.0 6.0 0.00 0.00 0.00 72 1009.6
20260506170409 53 119 3.0 7.0 0.00 0.00 0.00 72 1009.5
20260506165409 53 86 3.0 7.0 0.00 0.00 0.00 71 1009.4
20260506164409 54 153 3.0 6.0 0.00 0.00 0.00 71 1009.3
20260506163409 54 95 3.0 5.0 0.00 0.00 0.00 70 1009.3
20260506162409 54 107 3.0 4.0 0.00 0.00 0.00 71 1009.4
20260506161412 54 146 3.0 7.0 0.00 0.00 0.00 70 1009.3
20260506160409 54 166 2.0 4.0 0.00 0.00 0.00 69 1009.2
20260506154409 54 124 4.0 7.0 0.00 0.00 0.00 67 1009.3
20260506153409 55 87 2.0 7.0 0.00 0.00 0.00 69 1009.2
20260506152409 55 96 5.0 8.0 0.00 0.00 0.00 68 1009.2
20260506151409 55 146 4.0 9.0 0.00 0.00 0.00 67 1009.1
20260506150412 55 121 3.0 6.0 0.00 0.00 0.00 71 1009.1
20260506145409 55 143 4.0 9.0 0.00 0.00 0.00 70 1009.0
20260506144410 55 146 4.0 8.0 0.00 0.00 0.00 70 1009.1
20260506143410 55 116 4.0 7.0 0.00 0.00 0.00 68 1009.1
20260506142501 56 130 3.0 7.0 0.00 0.00 0.00 68 1009.1
20260506142400 56 134 3.0 5.0 0.00 0.00 0.00 68 1009.1
20260506141401 56 103 4.0 7.0 0.00 0.00 0.00 66 1009.1
20260506140401 56 118 4.0 8.0 0.00 0.00 0.00 67 1009.0
20260506135401 56 135 4.0 9.0 0.00 0.00 0.00 69 1009.0
20260506134401 56 160 4.0 8.0 0.00 0.00 0.00 69 1009.1
20260506132404 55 151 2.0 5.0 0.00 0.00 0.00 72 1009.1
20260506131404 54 140 4.0 9.0 0.00 0.00 0.00 72 1009.1
20260506130401 54 146 4.0 7.0 0.00 0.00 0.00 73 1009.0
20260506125401 54 111 4.0 9.0 0.00 0.00 0.00 70 1009.0
20260506124401 55 113 4.0 9.0 0.00 0.00 0.00 68 1009.0
20260506122401 55 111 3.0 7.0 0.00 0.00 0.00 65 1009.0
20260506121401 55 82 3.0 5.0 0.00 0.00 0.00 62 1008.8
20260506120401 55 103 4.0 8.0 0.00 0.00 0.00 60 1008.8
20260506115401 55 92 3.0 7.0 0.00 0.00 0.00 61 1008.7
20260506114402 55 10 4.0 10.0 0.00 0.00 0.00 59 1008.8
20260506113401 55 103 4.0 9.0 0.00 0.00 0.00 60 1008.8
20260506104405 54 47 4.0 12.0 0.00 0.00 0.00 63 1008.6
20260506103403 53 53 4.0 10.0 0.00 0.00 0.00 64 1008.6
20260506102402 53 54 6.0 14.0 0.00 0.00 0.00 64 1008.6
20260506101402 53 49 4.0 11.0 0.00 0.00 0.00 65 1008.6
20260506095405 53 49 4.0 11.0 0.00 0.00 0.00 65 1008.5
20260506094405 53 75 3.0 9.0 0.00 0.00 0.00 66 1008.5
20260506093402 52 43 3.0 12.0 0.00 0.00 0.00 66 1008.5
20260506092402 52 360 3.0 9.0 0.00 0.00 0.00 67 1008.5
20260506091402 52 114 2.0 9.0 0.00 0.00 0.00 67 1008.5
20260506090402 52 17 5.0 10.0 0.00 0.00 0.00 67 1008.5
20260506085402 52 360 2.0 6.0 0.00 0.00 0.00 68 1008.4
20260506084402 51 44 3.0 12.0 0.00 0.00 0.00 67 1008.3
20260506083403 51 52 3.0 7.0 0.00 0.00 0.00 71 1008.2
20260506082403 51 57 2.0 4.0 0.00 0.00 0.00 71 1008.2
20260506081403 51 71 2.0 7.0 0.00 0.00 0.00 72 1008.1
20260506080403 50 30 3.0 11.0 0.00 0.00 0.00 75 1008.1
20260506072403 50 15 4.0 9.0 0.00 0.00 0.00 82 1007.9
20260506071403 50 309 4.0 10.0 0.00 0.00 0.00 82 1007.9
20260506070403 50 360 3.0 7.0 0.00 0.00 0.00 83 1007.9